time_stamp(utc),avg(mph),gust(mph),direction(deg),12m_air_temp(f),sonic_u(cm/s),sonic_v(cm/s),sonic_w(cm/s),pressure,2m_air_temp(f),pyranometer(W/m^2)
"2019-09-19 00:03:57+00",18.5,20.5,,63.2,822,157,44,1023.58,62.5,0
"2019-09-19 00:08:57+00",16.6,20.6,,63.1,711,236,18,1023.57,62.5,0
"2019-09-19 00:13:57+00",18.1,20.1,,63.1,777,285,28,1023.61,62.4,0
"2019-09-19 00:18:57+00",19.4,22.4,,63.1,810,350,36,1023.64,62.3,0
"2019-09-19 00:23:57+00",14.6,17.6,,62.9,610,250,52,1023.64,62.2,0
"2019-09-19 00:28:57+00",15.9,19.9,,63,686,241,36,1023.63,62.2,0
"2019-09-19 00:33:57+00",16.0,19.0,,63,669,272,33,1023.77,62.2,0
"2019-09-19 00:38:57+00",16.6,21.6,,63,722,208,37,1023.91,62.2,0
"2019-09-19 00:43:57+00",20.5,25.5,,63.1,870,327,35,1023.88,62.2,0
"2019-09-19 00:48:57+00",17.9,20.9,,63.1,779,235,47,1023.91,62.2,0
"2019-09-19 00:53:57+00",21.0,24.0,,63,926,164,37,1023.84,62.2,0
"2019-09-19 00:58:57+00",16.6,20.6,,63.2,718,249,51,1023.98,62.3,0
"2019-09-19 01:03:57+00",21.4,24.4,,63.1,932,288,43,1023.93,62.3,0
"2019-09-19 01:08:57+00",18.9,20.9,,63.1,824,214,30,1024.04,62.3,0
"2019-09-19 01:13:57+00",17.1,20.1,,63,688,319,36,1023.97,62.3,0
"2019-09-19 01:18:57+00",20.3,24.3,,63.1,887,248,45,1023.94,62.2,0
"2019-09-19 01:23:57+00",21.6,25.6,,63,946,290,31,1023.94,62.2,0
"2019-09-19 01:28:57+00",19.2,23.2,,63.2,824,309,25,1023.99,62.3,0
"2019-09-19 01:33:57+00",18.4,20.4,,63.2,764,314,26,1024.08,62.3,0
"2019-09-19 01:38:57+00",20.8,25.8,,63.2,901,286,39,1024.02,62.3,0
"2019-09-19 01:43:57+00",18.8,21.8,,63.2,737,410,19,1024.08,62.3,0
"2019-09-19 01:48:57+00",20.4,24.4,,63.1,878,306,42,1024.13,62.3,0
"2019-09-19 01:53:57+00",16.7,20.7,,63.1,707,262,17,1024.28,62.3,0
"2019-09-19 01:58:57+00",16.5,19.5,,63.1,696,280,30,1024.3,62.3,0
"2019-09-19 02:38:57+00",21.8,24.8,,63.3,923,351,17,1024.1,62.9,0
"2019-09-19 02:43:57+00",16.1,18.1,,63.4,707,217,45,1024.16,63,0
"2019-09-19 02:48:57+00",18.2,21.2,,63.2,743,350,31,1024.15,62.9,0
"2019-09-19 02:53:57+00",17.6,21.6,,63.2,784,125,65,1024.2,62.8,0
"2019-09-19 02:58:57+00",16.4,19.4,,63.1,697,244,31,1024.31,62.9,0
"2019-09-19 03:03:57+00",21.9,25.9,,63.2,956,277,35,1024.39,63,0
"2019-09-19 03:08:57+00",18.1,22.1,,63.2,786,243,45,1024.39,63,0
"2019-09-19 03:13:57+00",19.1,22.1,,63.1,840,187,69,1024.46,62.9,0
"2019-09-19 03:18:57+00",17.6,19.6,,62.9,738,305,18,1024.43,62.8,0
"2019-09-19 03:23:57+00",20.5,23.5,,63.1,870,360,35,1024.34,62.7,0
"2019-09-19 03:28:57+00",19.5,23.5,,63.1,846,263,43,1024.44,62.7,0
"2019-09-19 03:33:57+00",18.3,21.3,,63.1,755,342,32,1024.5,62.7,0
"2019-09-19 03:38:57+00",14.9,18.9,,63,639,226,34,1024.53,62.6,0
"2019-09-19 03:43:57+00",19.0,22.0,,62.8,830,239,35,1024.58,62.5,0
"2019-09-19 03:48:57+00",18.8,21.8,,62.8,788,321,38,1024.44,62.5,0
"2019-09-19 03:53:57+00",19.7,22.7,,62.8,831,333,23,1024.48,62.4,0
"2019-09-19 03:58:57+00",18.3,22.3,,62.6,820,92,56,1024.46,62.4,0
"2019-09-19 04:03:57+00",19.1,23.1,,62.8,848,142,62,1024.37,62.4,0
"2019-09-19 04:08:57+00",18.9,20.9,,62.6,839,147,54,1024.38,62.3,0
"2019-09-19 04:13:57+00",16.7,19.7,,62.5,703,289,34,1024.48,62.3,0
"2019-09-19 04:18:57+00",21.8,26.8,,62.4,948,239,54,1024.48,62.1,0
"2019-09-19 04:23:57+00",19.8,22.8,,62.5,772,425,38,1024.44,62.2,0
"2019-09-19 04:28:57+00",17.0,19.0,,62.2,734,219,44,1024.47,62,0
"2019-09-19 04:33:57+00",17.3,18.3,,62.3,705,326,15,1024.39,61.9,0
"2019-09-19 04:38:57+00",19.5,21.5,,62.3,820,321,44,1024.36,61.9,0
"2019-09-19 04:43:57+00",21.2,24.2,,62.4,887,379,50,1024.41,61.9,0
"2019-09-19 04:48:57+00",16.6,19.6,,62.3,665,341,39,1024.39,61.9,0
"2019-09-19 04:53:57+00",18.4,21.4,,62.2,749,346,34,1024.38,61.8,0
"2019-09-19 04:58:57+00",19.3,22.3,,62.1,832,302,32,1024.49,61.7,0
"2019-09-19 05:03:57+00",19.9,21.9,,62.1,818,361,34,1024.59,61.6,0
"2019-09-19 05:08:57+00",18.7,20.7,,62,816,231,47,1024.53,61.5,0
"2019-09-19 05:13:57+00",19.4,23.4,,61.9,780,384,28,1024.55,61.5,0
"2019-09-19 05:18:57+00",18.8,21.8,,61.9,739,401,45,1024.64,61.4,0
"2019-09-19 05:23:57+00",17.5,20.5,,61.7,698,361,26,1024.51,61.2,0
"2019-09-19 05:28:57+00",16.1,18.1,,61.7,618,371,37,1024.53,61.2,0
"2019-09-19 05:33:57+00",21.2,24.2,,61.8,777,521,27,1024.41,61.2,0
"2019-09-19 05:38:57+00",19.9,24.9,,61.6,699,523,23,1024.38,61.1,0
"2019-09-19 05:43:57+00",17.0,19.0,,61.5,642,403,55,1024.43,61.1,0
"2019-09-19 05:48:57+00",18.2,20.2,,61.4,710,391,40,1024.4,60.8,0
"2019-09-19 05:53:57+00",16.9,19.9,,61.3,654,369,47,1024.41,60.8,0
"2019-09-19 05:58:57+00",22.4,26.4,,61.4,811,575,44,1024.25,60.8,0
"2019-09-19 06:03:57+00",20.3,23.3,,61.4,760,485,43,1024.21,60.9,0
"2019-09-19 06:08:57+00",15.8,17.8,,61.3,615,351,40,1024.24,60.9,0
"2019-09-19 06:13:57+00",16.8,19.8,,61.1,610,413,43,1024.26,60.6,0
"2019-09-19 06:18:57+00",21.8,24.8,,61.2,747,595,31,1024.22,60.7,0
"2019-09-19 06:23:57+00",18.9,20.9,,61.1,703,464,39,1024.31,60.6,0
"2019-09-19 06:28:57+00",18.6,19.6,,60.9,766,340,26,1024.33,60.4,0
"2019-09-19 06:33:57+00",20.4,23.4,,60.9,820,407,41,1024.35,60.3,0
"2019-09-19 06:38:57+00",19.3,21.3,,60.8,693,501,33,1024.38,60.1,0
"2019-09-19 06:43:57+00",19.5,23.5,,60.8,725,463,27,1024.43,60.2,0
"2019-09-19 06:48:57+00",19.8,21.8,,60.6,810,370,40,1024.47,59.9,0
"2019-09-19 06:53:57+00",22.1,25.1,,60.6,847,499,50,1024.45,59.8,0
"2019-09-19 06:58:57+00",19.5,22.5,,60.5,723,482,42,1024.48,59.8,0
"2019-09-19 07:03:57+00",21.7,23.7,,60.5,803,533,32,1024.4,59.8,0
"2019-09-19 07:08:57+00",17.9,19.9,,60.4,754,297,34,1024.52,59.7,0
"2019-09-19 07:13:57+00",17.6,21.6,,60.4,670,405,28,1024.48,59.6,0
"2019-09-19 07:18:57+00",17.6,20.6,,60.2,722,322,40,1024.43,59.3,0
"2019-09-19 07:23:57+00",20.9,24.9,,60,840,423,24,1024.41,59,0
"2019-09-19 07:28:57+00",19.9,21.9,,60.2,816,377,18,1024.38,58.9,0
"2019-09-19 07:33:57+00",17.5,22.5,,60.1,676,386,34,1024.43,59,0
"2019-09-19 07:38:57+00",19.1,22.1,,60.1,758,395,23,1024.41,59,0
"2019-09-19 07:43:57+00",15.7,17.7,,60.3,599,358,24,1024.6,59.2,0
"2019-09-19 07:48:57+00",18.0,19.0,,60.2,665,437,25,1024.6,59.2,0
"2019-09-19 07:53:57+00",17.2,19.2,,60.3,554,488,17,1024.53,59.4,0
"2019-09-19 07:58:57+00",17.5,21.5,,60.2,675,396,28,1024.57,59.4,0
"2019-09-19 08:03:57+00",15.8,16.8,,60.1,592,371,15,1024.51,59.3,0
"2019-09-19 08:08:57+00",15.6,18.6,,59.9,539,411,27,1024.46,59.1,0
"2019-09-19 08:13:57+00",15.8,17.8,,59.8,598,366,19,1024.5,58.8,0
"2019-09-19 08:18:57+00",16.9,19.9,,59.9,588,452,28,1024.47,58.9,0
"2019-09-19 08:23:57+00",12.6,14.6,,59.8,440,332,33,1024.53,59,0
"2019-09-19 08:28:57+00",14.4,16.4,,59.8,541,343,18,1024.47,59.1,0
"2019-09-19 08:33:57+00",17.4,21.4,,59.5,694,350,25,1024.55,58.9,0
"2019-09-19 08:38:57+00",13.1,18.1,,59.3,536,245,22,1024.51,58.7,0
"2019-09-19 08:43:57+00",18.8,20.8,,59.5,712,441,26,1024.34,58.6,0
"2019-09-19 08:48:57+00",14.4,17.4,,59.2,583,272,25,1024.26,58.3,0
"2019-09-19 08:53:57+00",13.4,14.4,,59.6,563,225,24,1024.26,58.4,0
"2019-09-19 08:58:57+00",12.6,15.6,,59.5,515,231,11,1024.34,58.5,0
"2019-09-19 09:03:57+00",7.2,9.2,,58.5,-14,317,29,1024.45,58.4,0
"2019-09-19 09:08:57+00",12.0,21.0,,57.2,381,328,31,1024.42,57.3,0
"2019-09-19 09:13:57+00",17.5,19.5,,59.3,731,292,30,1024.46,58,0
"2019-09-19 09:18:57+00",20.1,22.1,,59.5,753,492,30,1024.43,58.3,0
"2019-09-19 09:23:57+00",8.8,10.8,,58.1,29,372,35,1024.59,58.1,0
"2019-09-19 09:28:57+00",7.8,9.8,,55.4,92,308,3,1024.5,56.2,0
"2019-09-19 09:33:57+00",7.4,8.4,,55.1,36,313,7,1024.56,55.1,0
"2019-09-19 09:38:57+00",11.6,13.6,,54.8,68,492,6,1024.59,54.4,0
"2019-09-19 09:43:57+00",8.3,9.3,,54.5,38,343,24,1024.58,54.1,0
"2019-09-19 09:48:57+00",15.5,18.5,,58.1,605,328,28,1024.7,55.4,0
"2019-09-19 09:53:57+00",5.2,6.2,,56,17,180,16,1024.85,55.5,0
"2019-09-19 09:58:57+00",7.1,9.1,,54.7,-38,307,16,1024.85,54.6,0
"2019-09-19 10:03:57+00",6.5,9.5,,53.1,0,262,21,1024.73,53.7,0
"2019-09-19 10:08:57+00",13.0,14.0,,53.1,-228,529,30,1024.74,53.2,0
"2019-09-19 10:13:57+00",8.7,10.7,,53.3,37,365,-8,1024.86,52.9,0
"2019-09-19 10:18:57+00",7.2,9.2,,52.7,-20,308,24,1024.91,52.6,0
"2019-09-19 10:23:57+00",8.4,10.4,,52.7,-15,366,14,1024.91,52.3,0
"2019-09-19 10:28:57+00",8.8,9.8,,52.7,-71,374,2,1025,52.2,0
"2019-09-19 10:33:57+00",6.6,7.6,,52.8,-76,276,15,1025.1,52.2,0
"2019-09-19 10:38:57+00",8.5,10.5,,52.7,-122,348,19,1025.12,52.3,0
"2019-09-19 10:43:57+00",10.2,12.2,,52.8,-141,440,30,1025.21,52.4,0
"2019-09-19 10:48:57+00",9.3,11.3,,53,-87,392,18,1025.15,52.6,0
"2019-09-19 10:53:57+00",10.2,11.2,,53.3,-86,435,9,1025.17,52.8,0
"2019-09-19 10:58:57+00",11.6,12.6,,53.3,-100,496,13,1025.15,53,0
"2019-09-19 11:03:57+00",8.0,10.0,,53.4,-48,339,14,1025.19,53.1,0
"2019-09-19 11:08:57+00",8.8,9.8,,53.3,-73,374,15,1025.27,53.2,0
"2019-09-19 11:13:57+00",6.5,7.5,,53.4,-46,281,17,1025.21,53.3,0
"2019-09-19 11:18:57+00",6.6,9.6,,53.9,-37,284,12,1025.17,53.6,16.9
"2019-09-19 11:23:57+00",7.9,8.9,,54.6,9,345,11,1025.29,54.2,28.6
"2019-09-19 11:28:57+00",6.4,7.4,,55.1,9,267,13,1025.33,54.9,0.4
"2019-09-19 11:33:57+00",5.6,6.6,,55.3,23,234,4,1025.44,55.3,38.2
"2019-09-19 11:38:57+00",8.1,9.1,,56,7,350,8,1025.31,56,38.5
"2019-09-19 11:43:57+00",7.6,9.6,,56,30,322,21,1025.43,56.4,52.1
"2019-09-19 11:48:57+00",8.8,9.8,,55.1,-38,378,2,1025.47,56.5,9.2
"2019-09-19 11:53:57+00",7.6,8.6,,54.3,-60,328,16,1025.51,56.1,6.4
"2019-09-19 11:58:57+00",7.6,8.6,,54.2,-105,303,7,1025.71,55.7,15.8
"2019-09-19 12:03:57+00",8.8,9.8,,54.4,-103,374,23,1025.87,55.8,124.2
"2019-09-19 12:08:57+00",8.3,10.3,,54,-60,349,20,1025.9,55.8,32
"2019-09-19 12:13:57+00",8.6,9.6,,53.9,-45,369,3,1025.9,55.6,20.1
"2019-09-19 12:18:57+00",8.9,10.9,,54.1,-66,379,4,1026,55.5,16.1
"2019-09-19 12:23:57+00",8.9,10.9,,54.5,-27,386,7,1026.07,55.5,9.3
"2019-09-19 12:28:57+00",8.9,9.9,,54.6,-27,388,22,1026.12,55.5,9.4
"2019-09-19 12:33:57+00",8.2,9.2,,54.7,-4,353,7,1026.21,55.5,16.5
"2019-09-19 12:38:57+00",8.6,9.6,,55,8,373,10,1026.24,55.6,17.8
"2019-09-19 12:43:57+00",11.4,13.4,,55.6,17,492,8,1026.23,56,44
"2019-09-19 12:48:57+00",10.1,11.1,,56,1,436,5,1026.19,56.3,41.1
"2019-09-19 12:53:57+00",8.5,11.5,,56.3,-44,367,30,1026.13,56.8,49.6
"2019-09-19 12:58:57+00",10.5,12.5,,57.2,91,433,3,1026.19,57.4,55.2
"2019-09-19 13:03:57+00",12.4,14.4,,57.7,144,491,-1,1026.11,57.9,62
"2019-09-19 13:08:57+00",10.2,13.2,,58.2,166,392,18,1026.1,58.4,90.5
"2019-09-19 13:13:57+00",12.6,16.6,,58.5,54,529,16,1026.07,59,63.2
"2019-09-19 13:18:57+00",11.3,13.3,,58.7,129,454,17,1026.08,59.2,92.4
"2019-09-19 13:23:57+00",12.4,16.4,,59,138,503,26,1026.16,59.6,91.9
"2019-09-19 13:28:57+00",11.7,14.7,,59.3,172,460,-10,1026.22,59.8,77
"2019-09-19 13:33:57+00",11.0,13.0,,59.2,173,424,21,1026.26,59.8,78.2
"2019-09-19 13:38:57+00",9.8,12.8,,59.8,159,374,4,1026.28,60.5,52.9
"2019-09-19 13:43:57+00",8.1,11.1,,59.7,207,263,7,1026.44,60.4,94.8
"2019-09-19 13:48:57+00",11.9,14.9,,60.5,435,291,17,1026.44,61.1,130.7
"2019-09-19 13:53:57+00",13.2,15.2,,60.8,483,324,20,1026.39,61.7,101.7
"2019-09-19 13:58:57+00",11.2,15.2,,61,435,242,29,1026.38,62.1,270.6
"2019-09-19 14:03:57+00",15.7,17.7,,61.6,690,206,36,1026.41,63.6,145.7
"2019-09-19 14:08:57+00",10.0,12.0,,61.1,395,201,7,1026.51,63.1,114
"2019-09-19 14:13:57+00",10.9,12.9,,61.4,382,279,23,1026.59,63,132
"2019-09-19 14:18:57+00",14.2,17.2,,61.3,408,427,0,1026.67,63,139.6
"2019-09-19 14:23:57+00",12.1,13.1,,61.3,508,160,45,1026.65,63.1,120.1
"2019-09-19 14:28:57+00",11.9,13.9,,61.2,409,313,9,1026.74,62.8,152.8
"2019-09-19 14:33:57+00",12.2,14.2,,61.4,494,236,31,1026.73,62.7,169.7
"2019-09-19 14:38:57+00",16.4,18.4,,61.8,634,372,34,1026.68,63.9,437.1
"2019-09-19 14:43:57+00",13.5,15.5,,61.7,588,144,23,1026.62,64.7,395.4
"2019-09-19 14:48:57+00",15.0,17.0,,61.8,542,382,17,1026.61,65.2,258.4
"2019-09-19 14:53:57+00",12.5,13.5,,61.9,485,262,67,1026.64,65.2,486
"2019-09-19 14:58:57+00",12.5,14.5,,62.9,517,190,51,1026.7,66.9,523.2
"2019-09-19 15:03:57+00",13.7,15.7,,61.6,607,84,33,1026.77,66.3,151.1
"2019-09-19 15:08:57+00",16.5,19.5,,61.7,684,286,4,1026.77,65.5,355
"2019-09-19 15:13:57+00",13.2,18.2,,62.4,562,173,55,1026.82,65.9,558.7
"2019-09-19 15:18:57+00",15.1,17.1,,61.8,410,474,-2,1026.89,66.1,186.8
"2019-09-19 15:23:57+00",15.0,20.0,,61.7,387,507,-8,1026.86,64.9,519.3
"2019-09-19 15:28:57+00",15.8,17.8,,61.6,602,363,29,1026.86,64.2,385.6
"2019-09-19 15:33:57+00",13.7,16.7,,61.8,348,454,8,1026.99,64.5,244.5
"2019-09-19 15:38:57+00",11.4,12.4,,61.5,342,329,-8,1027.03,63.9,138.6
"2019-09-19 15:43:57+00",10.1,12.1,,61.4,314,286,5,1027.03,63.5,160.8
"2019-09-19 15:48:57+00",13.4,14.4,,61.9,538,268,33,1026.98,63.8,176
"2019-09-19 15:53:57+00",16.4,19.4,,61.9,616,391,18,1026.91,63.8,161.6
"2019-09-19 15:58:57+00",13.6,16.6,,61.6,456,373,-3,1026.97,63.6,168.6
"2019-09-19 16:03:57+00",15.0,18.0,,61.5,472,430,-4,1026.97,63.5,368.4
"2019-09-19 16:08:57+00",12.9,15.9,,61.4,412,367,5,1026.86,63.6,132.7
"2019-09-19 16:13:57+00",18.2,19.2,,61.3,511,569,-4,1026.82,63.1,183.6
"2019-09-19 16:18:57+00",14.4,18.4,,61.7,466,404,40,1026.81,63.6,245.4
"2019-09-19 16:23:57+00",11.6,15.6,,61.5,340,354,22,1026.86,63.8,236.8
"2019-09-19 16:28:57+00",13.3,15.3,,61.4,411,381,2,1026.81,63.7,159.9
"2019-09-19 16:33:57+00",12.5,13.5,,61.4,410,344,13,1026.82,63.6,563.4
"2019-09-19 16:38:57+00",15.8,16.8,,61.8,502,445,29,1026.75,64.3,236.6
"2019-09-19 16:43:57+00",10.1,11.1,,61.7,300,296,22,1026.69,64.7,412.5
"2019-09-19 16:48:57+00",12.5,14.5,,61.8,338,404,1,1026.65,64.9,206.9
"2019-09-19 16:53:57+00",11.8,13.8,,61.4,263,428,1,1026.63,64.2,220.7
"2019-09-19 16:58:57+00",10.7,13.7,,61.6,283,349,12,1026.71,64,389.6
"2019-09-19 17:03:57+00",13.4,14.4,,61.7,347,433,8,1026.61,65,322.1
"2019-09-19 17:08:57+00",12.3,16.3,,61.7,443,310,15,1026.59,64.6,575.7
"2019-09-19 17:13:57+00",10.1,12.1,,61.5,285,309,16,1026.59,64.4,477
"2019-09-19 17:18:57+00",13.7,15.7,,61.7,538,296,20,1026.6,64.9,291.5
"2019-09-19 17:23:57+00",8.0,9.0,,61.8,288,179,34,1026.57,65.4,518.9
"2019-09-19 17:28:57+00",11.6,13.6,,61.7,382,318,21,1026.62,65,169.8
"2019-09-19 17:33:57+00",10.0,14.0,,61.8,422,122,44,1026.57,64.8,549.3
"2019-09-19 17:38:57+00",12.6,13.6,,62.2,461,308,28,1026.42,65.8,473.1
"2019-09-19 17:43:57+00",12.0,14.0,,61.8,438,298,13,1026.42,65.2,501.9
"2019-09-19 17:48:57+00",8.8,10.8,,61.9,362,135,51,1026.4,65.5,361.8
"2019-09-19 17:53:57+00",10.2,12.2,,61.9,270,336,1,1026.47,65.4,345.9
"2019-09-19 17:58:57+00",7.7,9.7,,62,310,138,40,1026.51,65.4,439.4
"2019-09-19 18:03:57+00",11.3,14.3,,62.3,416,253,39,1026.4,65.9,463.3
"2019-09-19 18:08:57+00",10.1,12.1,,61.9,370,236,18,1026.61,65.6,422.2
"2019-09-19 18:13:57+00",7.5,9.5,,62.1,235,209,17,1026.59,65.8,439
"2019-09-19 18:18:57+00",7.0,9.0,,61.8,239,176,8,1026.5,65.8,432.6
"2019-09-19 18:23:57+00",9.6,11.6,,61.9,340,223,10,1026.46,66.1,426.6
"2019-09-19 18:28:57+00",7.9,8.9,,61.8,331,111,33,1026.46,66.4,410.6
"2019-09-19 18:33:57+00",9.0,11.0,,62.4,227,307,33,1026.42,66.3,407.5
"2019-09-19 18:38:57+00",10.1,12.1,,62.1,369,242,8,1026.41,66.1,398.2
"2019-09-19 18:43:57+00",6.7,7.7,,62.1,232,171,-9,1026.33,66.1,392.4
"2019-09-19 18:48:57+00",12.1,13.1,,62.1,527,114,18,1026.23,66,386.7
"2019-09-19 18:53:57+00",7.4,8.4,,61.9,320,54,-2,1026.25,66.4,377.3
"2019-09-19 18:58:57+00",9.4,11.4,,62,280,271,-6,1026.22,66.6,370.6
"2019-09-19 19:03:57+00",6.5,7.5,,62,269,96,16,1026.23,66.3,363.5
"2019-09-19 19:08:57+00",6.6,7.6,,62.5,289,22,6,1026.16,66.6,352.2
"2019-09-19 19:13:57+00",9.2,11.2,,62.3,401,104,16,1026.21,66.8,344.6
"2019-09-19 19:18:57+00",9.6,11.6,,62.1,427,-20,3,1026.14,67,336.3
"2019-09-19 19:23:57+00",6.3,10.3,,62.2,227,131,17,1026,66.9,329.5
"2019-09-19 19:28:57+00",12.4,14.4,,62.6,526,187,14,1026.05,66.5,323.4
"2019-09-19 19:33:57+00",8.8,9.8,,62.3,380,-67,-5,1026.03,66.3,313.5
"2019-09-19 19:38:57+00",8.2,10.2,,62.5,357,67,4,1026.06,66.3,305
"2019-09-19 19:43:57+00",8.1,10.1,,62.6,324,154,4,1025.95,66.3,298.6
"2019-09-19 19:48:57+00",7.4,9.4,,62.4,310,94,-2,1026.01,66.4,290.7
"2019-09-19 19:53:57+00",9.1,11.1,,62.5,212,320,2,1025.88,66.5,283.7
"2019-09-19 19:58:57+00",6.9,8.9,,62.4,283,109,17,1025.82,66.1,276.2
"2019-09-19 20:03:57+00",7.0,10.0,,62.6,266,145,15,1025.83,66,267.5
"2019-09-19 20:08:57+00",11.9,12.9,,62.6,459,262,11,1025.79,66.2,259.7
"2019-09-19 20:13:57+00",7.0,9.0,,62.6,295,92,-2,1025.81,66.2,250.1
"2019-09-19 20:18:57+00",8.5,10.5,,62.4,368,77,14,1025.75,66.5,244
"2019-09-19 20:23:57+00",9.2,11.2,,62.6,401,97,17,1025.64,66.8,235.1
"2019-09-19 20:28:57+00",5.7,6.7,,63,240,44,19,1025.68,66.8,226.9
"2019-09-19 20:33:57+00",9.6,11.6,,62.8,424,37,14,1025.77,66.8,217.8
"2019-09-19 20:38:57+00",6.8,7.8,,62.6,295,31,2,1025.92,66.7,208.6
"2019-09-19 20:43:57+00",8.8,9.8,,62.8,391,49,22,1025.85,66.8,200.2
"2019-09-19 20:48:57+00",7.9,8.9,,62.8,316,139,18,1025.89,66.7,192.3
"2019-09-19 20:53:57+00",8.0,10.0,,62.9,343,71,47,1025.88,66.6,184.2
"2019-09-19 20:58:57+00",8.0,9.0,,62.9,329,103,3,1025.95,66.3,175.1
"2019-09-19 21:03:57+00",7.3,9.3,,62.8,290,125,16,1026.02,66,165.5
"2019-09-19 21:08:57+00",7.1,7.1,,62.8,291,104,43,1025.95,65.9,155.9
"2019-09-19 21:13:57+00",7.8,9.8,,62.7,345,-6,19,1025.96,65.9,144.7
"2019-09-19 21:18:57+00",8.5,10.5,,62.9,315,182,47,1025.89,65.7,135.1
"2019-09-19 21:23:57+00",9.5,10.5,,62.6,406,112,6,1025.85,65.6,126.3
"2019-09-19 21:28:57+00",8.0,10.0,,62.8,343,111,19,1025.75,65.6,114.4
"2019-09-19 21:33:57+00",9.2,12.2,,62.7,413,-5,17,1025.77,65.3,104.2
"2019-09-19 21:38:57+00",9.8,10.8,,62.5,439,-27,26,1025.88,65.3,93.3
"2019-09-19 21:43:57+00",10.2,11.2,,62.4,456,16,9,1025.82,65,82.7
"2019-09-19 21:48:57+00",9.5,11.5,,62.4,422,50,46,1025.85,64.9,73.4
"2019-09-19 21:53:57+00",8.6,9.6,,62.4,386,-8,19,1025.84,64.9,63.4
"2019-09-19 21:58:57+00",8.8,9.8,,62.4,386,73,51,1025.87,64.7,51.9
"2019-09-19 22:03:57+00",8.8,9.8,,62.3,379,81,6,1025.86,64.8,42.1
"2019-09-19 22:08:57+00",9.1,10.1,,62.2,389,114,13,1025.86,64.5,33.3
"2019-09-19 22:13:57+00",9.5,10.5,,62.2,406,118,11,1025.88,64.2,22.9
"2019-09-19 22:18:57+00",8.9,9.9,,62.2,397,44,35,1025.8,64,13.7
"2019-09-19 22:23:57+00",9.5,11.5,,62.1,427,7,29,1025.79,63.7,7.7
"2019-09-19 22:28:57+00",9.0,10.0,,61.9,388,72,-2,1025.81,63.2,1.5
"2019-09-19 22:33:57+00",9.3,10.3,,61.8,406,77,7,1025.88,63,0
"2019-09-19 22:38:57+00",6.9,8.9,,61.7,287,112,18,1025.85,62.8,0
"2019-09-19 22:43:57+00",9.9,10.9,,61.7,427,135,39,1025.92,62.3,0
"2019-09-19 22:48:57+00",8.3,9.3,,61.6,363,46,8,1025.96,62,0
"2019-09-19 22:53:57+00",7.6,8.6,,61.5,329,68,16,1026,61.7,0
"2019-09-19 22:58:57+00",8.9,9.9,,61.4,390,66,15,1026.08,61.2,0
"2019-09-19 23:03:57+00",8.5,9.5,,61.4,361,101,19,1025.98,60.8,0
"2019-09-19 23:08:57+00",7.9,8.9,,61.4,347,49,20,1026.04,60.4,0
"2019-09-19 23:13:57+00",6.1,8.1,,61.1,254,78,16,1025.99,60,0
"2019-09-19 23:18:57+00",7.4,8.4,,60.9,319,57,22,1025.97,59.6,0
"2019-09-19 23:23:57+00",8.0,9.0,,61.1,339,93,26,1025.97,59.3,0
"2019-09-19 23:28:57+00",7.7,8.7,,60.9,339,34,20,1025.91,59,0
"2019-09-19 23:33:57+00",7.6,8.6,,60.9,326,60,22,1025.88,58.9,0
"2019-09-19 23:38:57+00",8.1,9.1,,60.8,356,-1,17,1025.78,58.7,0
"2019-09-19 23:43:57+00",7.7,8.7,,60.9,335,-3,18,1025.8,58.8,0
"2019-09-19 23:48:57+00",8.1,9.1,,61.2,359,-5,18,1025.76,58.9,0
"2019-09-19 23:53:57+00",7.1,8.1,,61.1,316,-8,18,1025.82,59.1,0
"2019-09-19 23:58:57+00",8.0,9.0,,61.1,351,-15,16,1025.75,59.1,0
